Wind_Speed
10 6 2 4 3 2 3 3 1 3 2 3 2 3 5 4 5 4 6 5 12 11 9 7 8 7 6 6 6 7 7 7 9 10 9 12 12 12 13 13 14 14 15 15 15 15 15 16 16
7 4 2 1 3 3 4 3 2 4 6 5 2 1 2 3 3 7 10 8 12 11 9 7 8 7 7 5 6 6 6 7 7 9 9 10 11 11 12 12 13 13 14 14 14 14 14 14 15
4 3 3 1 1 2 3 3 5 6 6 2 2 2 2 3 4 10 5 13 12 10 9 7 7 7 7 6 6 6 6 6 7 8 9 10 10 11 11 11 12 12 12 13 13 13 14 14 15
3 3 3 4 0 3 3 6 6 7 3 2 0 2 2 2 4 7 11 13 12 10 8 7 6 6 5 6 5 6 6 6 7 7 9 9 9 10 10 10 10 11 10 11 11 12 12 12 13
1 2 3 2 2 3 3 5 6 4 3 4 3 3 1 4 5 10 13 13 11 9 8 5 7 5 5 4 5 5 5 6 6 6 7 7 8 8 9 9 9 9 9 9 10 10 10 10 11
3 2 5 6 4 4 4 6 5 2 3 4 3 2 3 8 9 11 14 13 10 9 8 6 6 5 4 3 4 4 4 5 5 5 6 6 7 6 6 7 7 8 8 9 9 10 9 9 10
3 4 2 2 5 5 4 6 4 2 3 2 1 1 4 10 9 12 15 13 11 9 8 7 6 6 5 4 3 3 3 3 3 3 4 3 5 6 5 6 7 7 7 7 7 7 8 8 9
0 2 5 3 6 3 6 7 1 5 1 2 1 1 5 8 14 15 14 13 11 10 8 8 7 7 6 5 4 3 2 1 2 3 2 1 3 3 3 6 6 6 6 6 6 6 7 7 7
1 4 5 5 5 5 6 7 4 1 3 3 5 2 6 12 16 17 15 14 13 12 11 9 9 9 7 6 5 3 3 2 3 1 2 3 2 2 2 3 4 5 4 5 4 4 3 4 5
2 4 2 2 2 2 7 6 5 5 5 7 7 6 7 15 18 19 18 18 17 15 14 11 11 10 9 7 7 5 4 3 4 3 3 2 2 2 1 3 4 3 3 3 2 2 3 5 3
1 0 4 4 1 1 4 5 4 6 7 8 6 8 12 15 17 18 18 17 18 16 14 14 12 11 10 9 7 7 6 5 5 5 5 4 3 3 3 2 3 2 4 2 3 3 2 2 3
2 3 1 3 2 2 3 2 5 10 7 1 3 4 15 16 18 19 18 17 16 17 16 15 14 13 12 10 9 8 8 7 6 6 6 5 4 5 4 3 4 3 3 4 4 3 4 4 4
1 3 2 2 2 1 2 6 8 10 8 7 4 8 12 15 17 17 16 15 16 17 17 17 16 15 13 12 10 9 9 8 7 7 7 6 6 6 5 5 5 5 5 5 5 5 5 6 6
2 2 2 2 2 2 4 3 3 2 1 9 10 11 10 14 16 15 17 18 19 18 18 17 17 16 14 14 12 10 10 9 9 9 8 8 8 7 7 6 6 6 6 6 6 6 6 7 7
2 3 4 2 1 1 2 7 9 5 4 5 9 11 10 13 14 19 18 19 19 18 17 18 18 17 16 15 14 13 12 11 11 11 11 11 10 9 9 8 8 7 7 7 7 7 7 8 8
3 3 3 3 1 1 3 1 5 4 6 7 8 10 11 13 17 16 17 17 17 17 18 17 17 17 17 16 14 14 13 13 13 13 12 12 12 12 10 10 9 8 8 8 8 8 8 9 9
2 1 2 2 0 2 4 5 3 5 6 9 9 10 11 12 15 17 18 18 17 17 17 18 18 18 18 17 15 15 15 15 15 14 14 13 14 14 13 12 11 10 9 9 9 9 9 10 11
0 2 1 3 2 4 8 15 11 9 11 13 12 12 11 12 14 15 17 18 18 17 17 17 18 19 18 15 15 15 15 16 16 17 16 15 15 15 15 14 14 12 12 12 11 11 11 11 12
1 2 5 2 1 5 5 12 13 7 7 9 10 11 12 13 10 11 14 17 18 18 18 19 20 19 18 17 16 16 18 17 17 18 19 18 17 17 17 16 15 15 15 14 13 13 13 13 11
1 4 4 3 2 5 7 15 11 6 5 5 5 10 12 11 11 13 15 16 19 19 21 20 21 19 20 19 16 14 11 14 17 15 18 20 20 20 18 18 17 17 16 16 16 16 14 13 11
3 5 2 4 7 4 8 7 6 4 5 5 7 6 6 10 12 12 16 17 17 19 21 21 21 20 20 20 17 15 15 18 18 20 21 21 20 20 21 21 20 18 18 19 19 19 18 16 12
5 2 1 3 4 3 1 1 7 7 5 6 5 6 6 8 9 10 14 16 19 19 17 18 18 19 19 19 19 20 19 19 16 15 15 15 17 20 22 22 21 21 20 22 21 20 20 18 18
2 1 1 2 5 5 5 4 5 5 8 8 7 5 4 4 6 8 11 14 16 15 16 16 17 18 19 20 22 20 22 20 18 17 17 17 18 21 22 23 22 23 23 24 23 21 21 21 22
6 2 2 3 3 5 4 3 6 9 11 11 7 5 5 4 4 5 7 10 11 11 13 15 17 19 20 22 24 25 24 20 19 18 18 17 17 18 21 23 25 25 25 25 24 24 24 24 23
4 3 3 4 4 2 2 4 7 8 6 10 10 8 6 5 5 6 8 11 12 13 12 14 16 17 18 21 23 25 26 23 23 22 20 18 18 18 19 20 22 24 25 25 24 23 24 25 26
8 3 3 3 2 1 2 6 2 5 5 5 5 6 5 6 6 7 8 10 11 11 11 13 14 14 16 18 21 22 23 22 22 22 21 20 19 18 16 17 19 20 21 22 23 24 26 25 26
6 7 3 0 1 4 3 5 8 7 9 9 10 8 9 9 8 8 9 9 9 10 11 12 12 12 13 15 15 16 18 20 22 21 20 20 20 19 19 18 18 17 18 20 21 23 25 24 24
4 4 3 3 3 5 5 5 6 15 18 15 14 13 11 9 8 7 8 9 9 9 9 9 10 9 8 9 10 12 13 15 17 18 19 20 20 19 19 18 18 17 18 18 19 21 21 22 23
5 5 4 2 3 3 3 3 1 16 20 20 18 15 13 11 9 8 8 7 7 7 8 8 8 7 5 5 6 7 9 11 13 15 17 17 17 18 18 18 17 16 17 17 19 21 20 22 23
4 7 10 4 5 2 2 5 2 3 14 15 17 15 12 10 10 8 9 9 9 9 8 8 7 6 5 4 3 4 6 9 12 13 15 15 17 17 17 16 16 16 16 17 19 21 21 23 25
Wind_Direction
322 323 270 232 235 250 83 88 51 108 134 60 52 306 7 9 348 28 138 118 140 142 138 134 127 120 110 93 83 83 69 78 56 64 56 54 52 51 50 49 49 47 47 47 44 44 47 50 46
321 315 277 252 276 272 91 122 113 65 98 116 121 222 229 72 59 104 139 146 147 146 143 133 134 125 119 94 91 95 74 86 54 62 62 60 58 56 55 51 49 50 47 45 45 47 49 46 43
320 335 273 327 275 356 57 133 113 121 130 181 150 322 29 75 113 146 127 151 151 149 148 144 139 135 127 104 104 99 86 91 58 70 70 64 61 61 58 54 50 46 47 44 48 48 47 46 42
303 206 154 266 30 94 50 132 123 147 188 207 279 144 154 106 133 155 149 154 154 153 153 151 144 140 129 113 102 98 89 89 65 79 62 67 62 61 59 55 51 48 48 43 45 46 47 47 44
311 237 218 210 135 114 120 120 150 151 124 150 208 99 132 158 139 151 156 159 160 159 159 155 149 148 134 110 104 101 91 87 75 78 68 65 62 62 62 58 52 48 48 50 49 48 48 49 43
211 275 232 226 150 127 144 156 158 170 138 141 211 180 98 138 155 171 167 165 164 164 162 163 168 163 150 133 115 95 82 83 90 84 82 74 62 64 61 54 48 44 48 49 47 48 45 45 43
251 230 246 210 153 171 160 160 208 170 170 182 14 252 101 167 161 163 165 167 167 168 174 177 174 181 178 160 134 126 101 80 99 104 111 73 66 60 61 50 41 41 42 42 36 40 48 44 43
149 230 176 194 185 139 141 170 249 218 138 89 230 158 121 150 160 159 165 170 177 181 187 188 190 183 180 183 176 168 151 110 126 141 122 183 1 12 33 48 32 31 36 35 33 40 45 48 42
262 213 197 164 180 126 148 195 155 85 183 191 184 262 94 142 156 162 172 180 187 192 198 197 200 198 198 194 204 195 202 188 185 175 260 356 310 330 4 328 22 33 30 37 46 47 45 47 33
261 233 137 111 138 147 174 213 162 206 204 219 214 174 134 157 171 178 186 191 195 199 203 202 202 203 207 209 215 217 226 233 231 246 281 299 308 271 310 311 331 336 353 357 355 353 16 28 357
56 331 134 148 141 196 173 204 195 232 242 255 233 196 175 177 187 195 200 202 200 201 205 205 205 205 209 213 217 224 229 240 247 249 262 272 282 283 294 295 316 314 339 333 335 342 326 342 344
170 87 81 131 126 166 196 145 224 233 262 91 216 179 176 189 196 202 205 205 200 202 209 209 207 210 212 215 218 226 229 238 247 251 255 260 272 271 273 274 285 304 301 307 322 314 317 311 308
106 130 135 128 156 226 191 239 266 251 244 213 174 185 195 198 204 206 208 209 206 208 210 211 211 212 212 217 221 224 232 239 247 253 253 254 259 267 271 275 279 283 292 301 308 312 315 313 306
83 132 145 188 178 185 259 243 251 154 143 219 214 216 208 207 203 200 205 209 210 212 213 212 214 216 215 219 224 226 234 240 243 247 248 248 250 256 267 269 269 271 274 278 289 297 301 300 300
137 203 193 189 186 202 297 234 232 226 212 229 217 220 212 213 208 211 210 212 212 214 214 214 216 217 218 223 228 232 236 237 244 248 248 246 248 254 259 264 266 266 265 272 283 289 290 291 287
214 229 218 109 191 138 264 137 186 188 220 234 225 217 216 217 218 219 217 215 212 212 212 214 214 217 221 225 230 234 238 240 243 248 248 247 247 249 254 257 261 260 260 265 268 274 279 280 280
188 228 248 184 149 289 244 285 168 193 223 251 239 224 220 223 219 220 217 216 213 213 213 214 215 219 222 227 230 236 240 242 246 247 248 247 246 246 247 251 255 252 253 256 258 263 266 272 276
217 247 223 280 107 250 264 267 270 250 254 256 249 233 223 223 226 217 215 214 215 215 215 216 217 220 221 225 230 237 241 244 244 245 247 247 246 245 244 250 251 248 249 250 251 255 257 263 271
93 288 290 290 65 289 264 282 287 292 239 250 240 226 220 223 216 209 209 210 212 214 215 216 216 218 215 219 225 237 242 247 247 247 248 246 244 244 242 246 249 245 245 248 247 249 254 259 264
224 279 275 270 260 287 307 296 288 245 245 248 235 217 221 222 211 210 205 205 209 212 216 217 220 217 216 219 224 232 241 246 247 250 248 249 246 245 242 243 245 244 246 247 243 242 246 255 247
225 263 283 308 320 256 297 262 210 192 242 236 235 235 229 224 221 209 204 206 206 212 213 216 218 217 218 220 223 234 241 251 254 252 253 249 247 246 245 244 242 244 242 244 242 237 235 244 244
265 174 185 310 309 286 273 271 205 198 236 221 205 209 220 215 215 220 210 206 207 214 213 215 216 217 218 217 220 226 234 247 252 253 253 249 249 249 249 248 242 242 241 243 242 239 236 235 244
42 142 326 284 271 288 189 254 136 176 216 203 197 191 194 200 207 201 203 206 210 206 210 213 215 217 217 217 223 229 238 247 256 254 257 253 253 254 250 248 244 242 240 242 241 239 235 235 239
136 170 213 226 253 241 126 255 193 186 208 183 187 184 171 170 177 193 189 193 198 197 204 211 213 220 221 224 229 233 239 245 252 255 257 261 259 255 254 248 245 244 243 242 242 241 239 238 239
200 215 217 208 206 278 114 235 273 191 180 180 176 169 167 168 177 177 188 193 194 199 204 209 212 217 221 226 232 239 245 247 251 257 258 259 260 258 258 252 246 245 244 243 242 241 240 238 239
191 256 274 260 241 34 152 230 213 194 169 167 162 159 175 187 182 185 193 195 197 200 203 209 213 219 221 230 238 244 249 252 256 260 258 260 261 261 260 255 252 250 247 246 244 243 244 242 241
156 216 18 275 139 270 202 244 251 201 201 199 198 196 193 188 187 192 192 194 190 197 204 206 210 220 224 235 244 251 256 257 260 265 265 265 267 265 264 260 256 254 249 245 243 243 245 244 246
256 130 173 208 226 243 206 258 226 189 198 196 197 201 194 194 192 196 197 192 193 197 196 199 208 217 226 240 251 260 264 266 269 270 267 266 269 270 269 265 261 255 250 247 244 247 249 247 247
167 202 217 297 247 269 293 235 229 201 195 192 196 196 193 194 192 188 185 184 185 189 190 192 198 203 215 238 254 267 276 277 276 275 277 276 275 273 270 268 263 257 253 247 246 246 247 246 247
255 229 201 229 187 235 310 279 150 216 201 197 194 191 192 195 188 183 181 181 185 184 177 184 189 192 198 213 238 273 295 298 294 288 286 282 279 279 277 272 266 260 256 250 247 247 246 246 246
Height
830 829 828 826 835 833 850 857 849 854 855 857 858 856 855 857 858 865 876 877 879 881 883 885 886 887 887 888 887 887 887 887 887 885 885 884 883 882 880 879 877 876 874 873 872 870 869 867 866
830 829 827 823 839 845 849 848 852 854 857 860 861 860 858 860 867 872 876 878 880 882 883 885 886 888 888 889 889 889 889 888 888 887 886 885 884 883 882 881 880 878 877 875 874 873 871 869 868
829 828 825 830 840 847 849 849 852 858 860 860 860 863 861 864 871 872 875 878 880 882 884 886 887 889 889 890 890 890 890 890 889 889 888 887 886 885 884 883 882 881 879 878 876 874 872 871 870
830 827 827 836 847 849 847 848 852 858 861 861 859 859 866 869 870 873 876 878 881 883 885 886 888 889 890 891 891 891 891 891 890 890 889 889 888 887 886 885 884 883 881 880 878 876 874 873 872
830 825 837 844 848 847 846 847 851 855 856 858 859 859 862 870 872 875 877 879 881 884 886 887 889 890 891 891 891 891 891 891 891 890 890 890 889 889 888 887 886 885 883 882 880 878 877 876 874
829 827 842 847 847 848 846 848 851 853 854 859 859 858 861 870 873 875 877 880 882 884 886 887 888 890 891 891 892 892 892 891 891 891 891 891 890 889 889 888 887 886 884 883 881 880 879 878 875
830 833 841 844 848 851 847 847 850 850 853 854 856 857 862 869 872 874 877 880 883 885 886 887 889 890 890 892 892 892 892 892 891 891 891 891 891 890 889 888 888 887 886 885 883 882 881 879 877
833 833 846 845 850 850 848 850 851 850 851 858 858 854 857 865 871 874 878 881 882 884 886 887 888 890 891 892 891 892 892 891 891 891 891 891 890 889 888 888 888 887 886 885 884 882 880 880 878
835 840 846 847 849 847 849 851 852 854 853 857 858 857 863 867 871 874 877 880 882 884 884 886 888 889 890 891 891 891 891 891 891 891 891 891 891 890 889 887 887 887 886 884 883 882 880 879 878
834 839 842 840 841 844 847 847 849 853 853 854 855 860 865 867 869 871 873 876 879 881 882 885 886 888 889 890 891 892 892 892 891 892 891 891 890 889 888 887 886 885 884 883 882 881 880 880 880
839 840 842 845 844 844 847 851 849 850 852 845 848 849 861 864 867 868 870 872 875 878 880 882 884 886 887 889 890 890 891 890 890 890 889 889 888 888 888 888 887 885 884 883 881 881 880 879 878
842 844 843 846 848 848 849 848 848 848 843 845 846 850 856 860 861 863 866 869 872 875 878 880 882 884 886 887 888 889 889 888 888 888 887 887 887 887 887 886 885 884 883 882 882 881 880 879 877
841 846 847 848 850 849 851 848 847 845 842 846 849 851 852 855 857 861 863 866 869 872 874 877 879 881 884 885 886 886 886 887 887 886 886 885 885 885 885 885 884 883 882 882 881 880 880 879 878
844 845 847 848 849 850 851 848 850 840 842 842 846 846 848 851 854 858 861 863 865 869 871 874 876 878 881 882 883 884 884 885 884 884 883 883 883 883 883 883 883 882 882 881 880 879 878 878 877
845 849 846 847 847 848 850 848 845 834 840 839 841 840 844 848 851 853 856 859 862 865 868 870 873 875 877 879 880 881 881 881 882 881 881 881 881 881 881 881 881 880 880 879 879 879 877 876 874
846 845 845 846 848 849 850 837 831 835 836 834 835 836 840 843 847 850 852 855 858 861 864 866 869 871 873 875 876 877 877 878 878 878 878 878 878 878 878 879 879 878 878 878 877 876 875 873 872
843 842 847 847 847 849 848 835 828 834 835 832 829 830 834 837 841 844 847 851 854 857 859 862 865 867 869 871 872 873 874 874 874 875 875 875 874 874 874 875 875 875 875 875 874 873 872 871 869
846 845 847 848 847 847 844 837 824 824 829 827 825 825 828 831 832 837 843 846 849 852 855 858 860 862 865 867 869 869 870 870 870 870 870 871 870 871 871 871 871 872 871 870 870 870 868 866 865
849 850 850 844 850 852 839 835 823 818 825 824 822 821 822 824 828 833 838 841 844 848 850 852 855 857 861 863 864 866 865 866 866 865 865 865 865 866 866 866 867 867 866 866 866 864 864 863 862
852 850 845 845 851 850 835 830 816 817 817 818 816 816 817 819 823 828 832 836 839 842 844 847 850 853 856 858 860 862 862 861 861 860 859 858 859 859 860 860 861 861 862 861 860 860 860 859 859
852 851 850 853 848 847 847 825 815 813 816 815 815 815 815 816 817 820 825 830 834 836 839 841 845 848 850 852 855 856 856 854 854 853 852 852 853 853 853 853 855 856 856 855 855 854 854 855 854
853 854 856 857 853 840 846 822 813 808 809 810 806 808 809 812 816 818 821 825 828 831 835 838 841 843 845 847 849 849 850 849 848 849 848 847 847 847 847 847 848 849 849 848 847 849 849 851 849
853 857 857 858 853 851 842 838 799 813 810 804 802 804 807 809 811 813 817 820 823 827 830 833 835 837 839 841 842 844 843 843 843 843 842 841 841 840 840 840 841 840 840 840 841 843 843 843 843
858 856 858 858 851 844 836 838 801 805 798 798 799 802 805 807 809 813 816 818 820 823 825 826 829 831 833 834 835 836 836 838 838 837 836 836 835 833 831 831 831 832 832 833 834 835 836 836 836
855 854 846 847 848 831 849 845 797 792 796 791 797 800 803 805 807 809 812 814 817 819 820 822 823 825 828 828 829 829 830 831 830 830 830 829 828 826 824 824 823 822 824 825 827 827 827 828 828
851 849 839 849 837 831 853 831 792 793 795 797 798 799 802 804 805 807 808 811 813 815 817 818 820 822 823 823 824 824 825 825 824 824 824 823 821 820 819 818 816 817 818 819 820 820 819 820 819
852 855 848 847 859 846 813 806 792 797 797 798 798 800 798 799 801 803 806 808 810 811 812 814 816 817 818 819 820 821 820 819 817 818 817 816 815 814 812 811 810 811 812 812 812 812 811 813 814
849 846 849 845 850 839 809 812 782 796 790 791 794 794 793 796 799 801 803 805 806 808 809 811 812 814 815 815 815 815 816 815 814 812 811 809 808 807 806 805 804 804 804 805 806 806 806 807 806
853 846 848 842 839 828 817 789 765 769 774 779 782 785 787 791 794 797 800 802 803 805 806 808 809 810 811 811 812 812 812 811 809 808 807 805 804 803 801 800 800 799 798 799 799 799 799 798 797
837 827 826 825 837 840 841 797 774 771 766 771 775 779 783 787 790 793 796 798 800 802 804 805 806 807 808 809 810 810 809 808 806 805 803 801 799 798 797 797 795 793 793 793 792 792 791 789 787